When you browse on this site, cookies collect data to enhance your experience and personalize the content and advertising you see.
Visit our Privacy Policy to learn more. By continuing to use the site, you agree to this use of cookies and data.
  • Em Portugal
  • Lista de países
  • Para 7 dias
  • Temperatura da água
  • Mapas de satélite
  • Mapa do tempo
  • Widgets de tempo
  • user-avatar
    Iniciar Sessão

    Previsão horária em Daliki

    Hoje, 20 Novembro, Terça-feira

    Tempo Temperatura Precipitação Vento Pressão Humidade
    00:00 -2°C° 0 mm 3 m/s 757 mmHg 92%
    01:00 -2°C° 0 mm 3 m/s 757 mmHg 93%
    02:00 -3°C° 0 mm 2 m/s 757 mmHg 94%
    03:00 -3°C° 0 mm 2 m/s 757 mmHg 95%
    04:00 -4°C° 0 mm 2 m/s 757 mmHg 95%
    05:00 -4°C° 0 mm 2 m/s 756 mmHg 96%
    06:00 -4°C° 0 mm 2 m/s 756 mmHg 95%
    07:00 -4°C° 0 mm 2 m/s 756 mmHg 95%
    08:00 -4°C° 0 mm 2 m/s 756 mmHg 95%
    09:00 -4°C° 0 mm 2 m/s 756 mmHg 92%
    10:00 -1°C° 0 mm 1 m/s 756 mmHg 89%
    11:00 -1°C° 0 mm 1 m/s 756 mmHg 86%
    12:00 0°C° 0 mm 1 m/s 756 mmHg 84%
    13:00 0°C° 0 mm 1 m/s 756 mmHg 83%
    14:00 0°C° 0 mm 1 m/s 756 mmHg 82%
    15:00 0°C° 0 mm 1 m/s 755 mmHg 84%
    16:00 -1°C° 0 mm 1 m/s 755 mmHg 86%
    17:00 -2°C° 0 mm 1 m/s 755 mmHg 88%
    18:00 -2°C° 0 mm 1 m/s 755 mmHg 89%
    19:00 -2°C° 0 mm 1 m/s 755 mmHg 90%
    20:00 -3°C° 0 mm 1 m/s 755 mmHg 91%
    21:00 -3°C° 0 mm 1 m/s 755 mmHg 91%
    22:00 -3°C° 0 mm 1 m/s 755 mmHg 91%
    23:00 -3°C° 0 mm 1 m/s 755 mmHg 90%

    Amanhã, 21 Novembro, Quarta-feira

    Tempo Temperatura Precipitação Vento Pressão Humidade
    00:00 -3°C° 0 mm 1 m/s 755 mmHg 90%
    01:00 -3°C° 0 mm 1 m/s 755 mmHg 89%
    02:00 -3°C° 0 mm 1 m/s 755 mmHg 89%
    03:00 -3°C° 0 mm 1 m/s 755 mmHg 88%
    04:00 -3°C° 0 mm 1 m/s 755 mmHg 87%
    05:00 -3°C° 0 mm 1 m/s 755 mmHg 86%
    06:00 -3°C° 0 mm 1 m/s 755 mmHg 85%
    07:00 -3°C° 0 mm 1 m/s 754 mmHg 85%
    08:00 -3°C° 0 mm 1 m/s 754 mmHg 84%
    09:00 -4°C° 0 mm 2 m/s 755 mmHg 83%
    10:00 -3°C° 0 mm 2 m/s 755 mmHg 82%
    11:00 -2°C° 0 mm 2 m/s 755 mmHg 81%
    12:00 -2°C° 0 mm 2 m/s 755 mmHg 81%
    13:00 -1°C° 0 mm 2 m/s 755 mmHg 82%
    14:00 -1°C° 0 mm 2 m/s 755 mmHg 82%
    15:00 -1°C° 0 mm 2 m/s 755 mmHg 83%
    16:00 -1°C° 0 mm 2 m/s 755 mmHg 83%
    17:00 -2°C° 0 mm 2 m/s 755 mmHg 84%
    18:00 -2°C° 0 mm 2 m/s 755 mmHg 84%
    19:00 -2°C° 0 mm 2 m/s 755 mmHg 83%
    20:00 -2°C° 0 mm 2 m/s 755 mmHg 83%
    21:00 -3°C° 0 mm 2 m/s 755 mmHg 86%
    22:00 -2°C° 0 mm 1 m/s 755 mmHg 88%
    23:00 -2°C° 0 mm 1 m/s 755 mmHg 90%

    Depois de amanhã, 22 Novembro, Quinta-feira

    Tempo Temperatura Precipitação Vento Pressão Humidade
    00:00 -2°C° 0 mm 1 m/s 755 mmHg 91%
    01:00 -2°C° 0 mm 1 m/s 755 mmHg 92%
    02:00 -3°C° 0 mm 1 m/s 755 mmHg 93%
    03:00 -5°C° 0 mm 2 m/s 755 mmHg 94%
    04:00 -5°C° 0 mm 2 m/s 754 mmHg 94%
    05:00 -5°C° 0 mm 2 m/s 754 mmHg 95%
    06:00 -5°C° 0 mm 2 m/s 754 mmHg 95%
    07:00 -5°C° 0 mm 2 m/s 754 mmHg 95%
    08:00 -5°C° 0 mm 2 m/s 754 mmHg 96%
    09:00 -4°C° 0 mm 2 m/s 754 mmHg 92%
    10:00 -4°C° 0 mm 3 m/s 754 mmHg 88%
    11:00 -2°C° 0 mm 3 m/s 754 mmHg 84%
    12:00 -2°C° 0 mm 3 m/s 754 mmHg 82%
    13:00 -2°C° 0 mm 3 m/s 753 mmHg 80%
    14:00 -2°C° 0 mm 4 m/s 753 mmHg 78%
    15:00 -3°C° 0 mm 4 m/s 753 mmHg 81%
    16:00 -4°C° 0 mm 4 m/s 753 mmHg 83%
    17:00 -4°C° 0 mm 4 m/s 753 mmHg 86%
    18:00 -4°C° 0 mm 4 m/s 753 mmHg 87%
    19:00 -5°C° 0 mm 4 m/s 753 mmHg 89%
    20:00 -5°C° 0 mm 4 m/s 753 mmHg 91%
    21:00 -4°C° 0 mm 4 m/s 753 mmHg 90%
    22:00 -4°C° 0 mm 4 m/s 753 mmHg 89%
    23:00 -3°C° 0 mm 4 m/s 753 mmHg 88%

    23 Novembro, Sexta-feira

    Tempo Temperatura Precipitação Vento Pressão Humidade
    00:00 -2°C° 0 mm 3 m/s 753 mmHg 88%
    01:00 -2°C° 0 mm 2 m/s 754 mmHg 88%
    02:00 -2°C° 0 mm 2 m/s 754 mmHg 88%
    03:00 -2°C° 0 mm 2 m/s 754 mmHg 89%
    04:00 -2°C° 0 mm 2 m/s 754 mmHg 90%
    05:00 -2°C° 0 mm 2 m/s 754 mmHg 91%
    06:00 0°C° 0 mm 1 m/s 755 mmHg 92%
    07:00 0°C° 0 mm 1 m/s 755 mmHg 93%
    08:00 0°C° 0 mm 1 m/s 755 mmHg 94%
    09:00 0°C° 0 mm 1 m/s 755 mmHg 91%
    10:00 +1°C° 0 mm 1 m/s 756 mmHg 89%
    11:00 +1°C° 0 mm 1 m/s 756 mmHg 87%
    12:00 +1°C° 0 mm 1 m/s 756 mmHg 86%
    13:00 +1°C° 0 mm 1 m/s 756 mmHg 84%
    14:00 -1°C° 0 mm 2 m/s 756 mmHg 83%
    15:00 -1°C° 0 mm 2 m/s 756 mmHg 84%
    16:00 -2°C° 0 mm 2 m/s 755 mmHg 85%
    17:00 -2°C° 0 mm 2 m/s 755 mmHg 86%
    18:00 -2°C° 0 mm 2 m/s 755 mmHg 87%
    19:00 -3°C° 0 mm 2 m/s 755 mmHg 88%
    20:00 -3°C° 0 mm 2 m/s 755 mmHg 89%
    21:00 -3°C° 0 mm 2 m/s 754 mmHg 90%
    22:00 -4°C° 0 mm 2 m/s 754 mmHg 91%
    23:00 -5°C° 0 mm 3 m/s 754 mmHg 91%

    24 Novembro, Sábado

    Tempo Temperatura Precipitação Vento Pressão Humidade
    00:00 -5°C° 0 mm 3 m/s 753 mmHg 91%
    01:00 -5°C° 0 mm 3 m/s 753 mmHg 91%
    02:00 -6°C° 0 mm 3 m/s 752 mmHg 91%
    03:00 -6°C° 0 mm 3 m/s 752 mmHg 90%
    04:00 -6°C° 0 mm 3 m/s 752 mmHg 89%
    05:00 -6°C° 0 mm 3 m/s 751 mmHg 89%
    06:00 -6°C° 0 mm 3 m/s 751 mmHg 88%
    07:00 -6°C° 0 mm 3 m/s 750 mmHg 88%
    08:00 -6°C° 0 mm 3 m/s 750 mmHg 87%
    09:00 -6°C° 0 mm 3 m/s 750 mmHg 83%
    10:00 -5°C° 0 mm 3 m/s 750 mmHg 80%
    11:00 -4°C° 0 mm 3 m/s 750 mmHg 76%
    12:00 -3°C° 0 mm 2 m/s 749 mmHg 75%
    13:00 -3°C° 0 mm 2 m/s 749 mmHg 75%
    14:00 -3°C° 0 mm 2 m/s 748 mmHg 75%
    15:00 -3°C° 0 mm 2 m/s 748 mmHg 77%
    16:00 -4°C° 0 mm 2 m/s 748 mmHg 80%
    17:00 -2°C° 0 mm 1 m/s 748 mmHg 82%
    18:00 -2°C° 0 mm 1 m/s 748 mmHg 82%
    19:00 -2°C° 0 mm 1 m/s 747 mmHg 83%
    20:00 -3°C° 0 mm 1 m/s 747 mmHg 83%
    21:00 -3°C° 0 mm 1 m/s 747 mmHg 83%
    22:00 -2°C° 0 mm 1 m/s 747 mmHg 83%
    23:00 -2°C° 0 mm 1 m/s 747 mmHg 83%

    25 Novembro, Domingo

    Tempo Temperatura Precipitação Vento Pressão Humidade
    00:00 -3°C° 0 mm 1 m/s 747 mmHg 84%
    01:00 -3°C° 0 mm 1 m/s 747 mmHg 85%
    02:00 -3°C° 0 mm 1 m/s 747 mmHg 86%
    03:00 -3°C° 0 mm 1 m/s 747 mmHg 87%
    04:00 -3°C° 0 mm 1 m/s 747 mmHg 88%
    05:00 -4°C° 0 mm 0 m/s 747 mmHg 89%
    06:00 -3°C° 0 mm 1 m/s 747 mmHg 90%
    07:00 -3°C° 0 mm 1 m/s 747 mmHg 90%
    08:00 -3°C° 0 mm 1 m/s 747 mmHg 91%
    09:00 -3°C° 0 mm 1 m/s 747 mmHg 89%
    10:00 -2°C° 0 mm 1 m/s 747 mmHg 86%
    11:00 -1°C° 0 mm 1 m/s 747 mmHg 84%
    12:00 -1°C° 0 mm 1 m/s 747 mmHg 84%
    13:00 -1°C° 0 mm 1 m/s 746 mmHg 85%
    14:00 -3°C° 0 mm 2 m/s 746 mmHg 85%
    15:00 -3°C° 0 mm 2 m/s 746 mmHg 87%
    16:00 -4°C° 0 mm 2 m/s 746 mmHg 90%
    17:00 -4°C° 0 mm 2 m/s 746 mmHg 92%
    18:00 -4°C° 0 mm 2 m/s 746 mmHg 92%
    19:00 -4°C° 0 mm 2 m/s 745 mmHg 92%
    20:00 -5°C° 0 mm 3 m/s 745 mmHg 91%
    21:00 -5°C° 0 mm 3 m/s 745 mmHg 91%
    22:00 -6°C° 0 mm 3 m/s 745 mmHg 90%
    23:00 -6°C° 0 mm 3 m/s 745 mmHg 90%
    Mostrar mais